User: anonymous   Login
Location: Unspecified
(0.0000°N, 0.0000°E)
Time: 20:49:37
(UTC+00:00)
Language:

Geosat - Orbit

View from above orbital plane
View from above orbital plane
View from above satellite
View from above satellite

Ground track
Ground track

The orbit data is extracted from the following two-line orbital elements,

1 15595U 85021A   18140.80078486 -.00000064  00000-0  23427-4 0  9999
2 15595 108.0336  76.1029 0001703 256.0090 127.0557 14.38072798738910
Epoch (UTC): 20 May 2018 19:13:07
Eccentricity: 0.0001703
inclination: 108.0336°
perigee height: 763 km
apogee height: 766 km
right ascension of ascending node: 76.1029°
argument of perigee: 256.0090°
revolutions per day: 14.38072798
mean anomaly at epoch: 127.0557°
orbit number at epoch: 73891

The dashed part of the orbit path shows where the satellite is in the earth's shadow,  

DLR